[[{"header":{"parameterUnit":"m.s-1","parameterCategory":1,"la1":30.2991,"la2":30.254,"lo1":-89.0895,"lo2":-89.0444,"dy":0.0017,"dx":0.0017,"nx":28,"ny":28,"refTime":"2026-02-10T09:00:00:Z","depth":0,"parameterNumber":2,"parameterNumberName":"U-component_of_WINDS"},"data":[0,0,0,0,0,0,0,0,0,0,0,0,0,0,0,0,0,0,0,0,0,0,0,0,0,0,0,0,0,0,0,0,0,0,0,0,0,0,0,0,0,0,0,0,0,0,0,0,0,0,0,0,0,0,0,0,0,0,1.2965,1.2965,0,1.3003,1.3004,1.3004,1.294,1.2938,1.2935,1.2933,1.2977,1.298,1.2983,0,0,0,0,0,0,0,0,0,0,0,0,0,1.2839,1.2842,1.2965,1.2965,1.2966,1.3003,1.3004,1.3004,1.294,1.2938,1.2935,1.2932,1.2976,1.2979,1.2983,0,0,0,0,0,0,0,0,0,0,0,0,0,1.2887,1.2842,1.2965,1.2938,1.2936,1.3003,1.3004,1.3005,1.2941,1.2937,1.2934,1.2931,1.2974,1.2979,1.2984,1.308,0,0,1.2998,1.3001,0,0,0,0,0,0,0,0,1.2885,1.2892,1.2942,1.294,1.2938,1.2963,1.2975,1.303,1.2942,1.2939,1.2933,1.2929,1.2975,1.298,1.2994,1.3082,1.3084,1.2999,1.3002,1.3004,1.3005,0,0,0,0,0,0,0,1.2881,1.289,1.298,1.2942,1.294,1.2925,1.2929,1.2985,1.2975,1.2939,1.2935,1.294,1.2974,1.299,1.2995,1.3084,1.2999,1.3003,1.3006,1.3008,1.3252,1.3255,0,0,0,0,0,0,1.2881,1.2888,1.2979,1.2981,1.2902,1.293,1.2934,1.2959,1.2975,1.2974,1.2943,1.2937,1.2983,1.2989,1.2996,1.3109,1.3004,1.3008,1.3011,1.3248,1.3252,1.3256,0,0,0,0,0,0,1.2878,1.289,1.2977,1.2933,1.2943,1.2936,1.2964,1.2961,1.2977,1.2977,1.2975,1.2961,1.2981,1.2989,1.3059,1.3109,1.3011,1.3015,1.3244,1.3249,1.3254,1.3335,0,0,0,0,0,0,1.2875,1.2889,1.2925,1.2934,1.2946,1.3039,1.2967,1.2964,1.2985,1.2978,1.2994,1.2993,1.2979,1.3052,1.3064,1.3114,1.3019,1.3239,1.3246,1.3253,1.3328,1.3342,1.3355,0,0,0,0,0,1.2871,1.2947,1.2927,1.2938,1.299,1.3042,1.3048,1.3029,1.299,1.3026,1.3026,1.2993,1.3102,1.306,1.3072,1.3125,1.3236,1.3244,1.3252,1.3322,1.334,1.3355,0,0,0,0,0,0,1.2944,1.2947,1.2925,1.3006,1.3024,1.3031,1.3075,1.3049,1.3079,1.3071,1.3047,1.3052,1.3126,1.3133,1.3085,1.3218,1.3163,1.3174,1.3211,1.3228,1.3241,1.3238,1.3023,0,0,0,0,0,1.2969,1.301,1.3011,1.3083,1.3093,1.3083,1.3105,1.3089,1.3106,1.3114,1.3119,1.3139,1.3177,1.3203,1.3239,1.3329,1.3331,1.3371,1.3385,1.3396,1.3406,1.3453,1.3471,1.3283,1.3283,1.3283,0,0,1.3023,1.303,1.3057,1.3098,1.311,1.3153,1.309,1.3139,1.3171,1.3122,1.3187,1.3192,1.3212,1.3292,1.3328,1.33,1.3458,1.3406,1.3415,1.3419,1.3463,1.3481,1.3497,1.3288,1.3287,1.3286,0,0,1.3142,1.3151,1.3211,1.3224,1.3242,1.3235,1.325,1.3261,1.3261,1.3326,1.329,1.3329,1.3396,1.3412,1.3429,1.3554,1.3525,1.3567,1.3637,1.3684,1.3699,1.3712,1.3756,1.3772,1.3576,1.3577,1.3577,0,1.3206,1.3268,1.3246,1.3297,1.3316,1.3273,1.3334,1.3348,1.3378,1.3392,1.3361,1.3443,1.3454,1.3537,1.3567,1.3583,1.3599,1.3564,1.3698,1.3711,1.3723,1.3765,1.3781,1.3581,1.3581,1.358,1.358,0,1.3346,1.3391,1.3437,1.3465,1.349,1.3546,1.3533,1.3561,1.3543,1.3539,1.3606,1.3618,1.3654,1.3673,1.3657,1.3754,1.3736,1.3702,1.3645,1.3746,1.3785,1.3801,1.3588,1.3587,1.3585,1.3584,0,0,1.3511,1.3526,1.3544,1.3555,1.3573,1.3607,1.3662,1.3696,1.3721,1.3743,1.3788,1.3846,1.3814,1.3834,1.3819,1.386,1.3957,1.382,1.3821,1.3845,1.4064,1.4089,1.4108,1.3938,1.3941,1.3944,1.4062,0,1.3628,1.3721,1.3702,1.3793,1.3834,1.3793,1.3841,1.3857,1.3856,1.3891,1.389,1.3931,1.3886,1.3898,1.3937,1.3937,1.4001,1.3929,1.398,1.3983,1.3975,1.4128,1.4154,1.4266,1.4077,1.408,1.4082,0,1.3777,1.3804,1.3898,1.3908,1.3925,1.3968,1.3998,1.4032,1.405,1.4046,1.4068,1.4045,1.41,1.4043,1.4119,1.407,1.409,1.4094,1.4098,1.4101,1.4037,1.4135,1.4301,1.4317,1.4106,1.4104,1.4102,0,1.3887,1.3946,1.401,1.4022,1.4036,1.4067,1.4075,1.4089,1.4111,1.4138,1.4152,1.4187,1.4205,1.4232,1.4219,1.4179,1.4297,1.424,1.4296,1.4296,1.4321,1.432,1.4492,1.4337,1.4336,1.4336,1.4336,0,1.4019,1.4078,1.4059,1.4099,1.4164,1.4143,1.4209,1.4212,1.4225,1.4265,1.4233,1.4271,1.4253,1.429,1.4281,1.4344,1.4353,1.4352,1.4349,1.4354,1.4354,1.4366,1.4358,1.4341,1.434,1.4339,1.4338,0,1.4151,1.4142,1.4208,1.4216,1.422,1.4267,1.4274,1.4311,1.4308,1.4358,1.4369,1.4364,1.4406,1.4396,1.4443,1.4437,1.4516,1.4504,1.451,1.4506,1.4562,1.4557,1.4748,1.4771,1.4602,1.4604,1.4605,0,1.4235,1.428,1.4292,1.4316,1.4325,1.4365,1.4387,1.4368,1.4393,1.4417,1.4451,1.449,1.452,1.459,1.4591,1.4626,1.4614,1.4678,1.4619,1.4623,1.4613,1.461,1.4614,1.469,1.4691,1.4693,1.4694,0,1.4386,1.4378,1.4411,1.4442,1.4469,1.4493,1.4514,1.4536,1.4519,1.4549,1.4591,1.4614,1.4661,1.47,1.4733,1.4742,1.4716,1.4713,1.4728,1.4733,1.4734,1.4733,1.4541,1.4709,1.4707,1.4706,1.4705,1.4705,1.4495,1.4533,1.4547,1.4585,1.4598,1.4619,1.4654,1.4654,1.4689,1.4725,1.4712,1.476,1.4778,1.4819,1.4832,1.4869,1.4845,1.4867,1.4872,1.4877,1.4883,1.4729,1.4876,1.4875,1.4875,1.4874,1.4874,0,1.4643,1.465,1.4685,1.4715,1.4744,1.4717,1.4739,1.4765,1.4808,1.4826,1.4856,1.4904,1.4942,1.4946,1.4982,1.5012,1.5001,1.5022,1.5019,1.5021,1.4904,1.4887,1.503,1.503,1.503,1.503,1.503,1.503,1.4722,1.4784,1.4779,1.4847,1.4854,1.49,1.4915,1.4934,1.4948,1.5003,1.5034,1.5036,1.5049,1.5086,1.5119,1.512,1.5134,1.5159,1.5155,1.5045,1.5029,1.5015,1.4999,1.5163,1.5163,1.5269,1.527,1.5271]},{"header":{"parameterUnit":"m.s-1","parameterCategory":1,"la1":30.2991,"la2":30.254,"lo1":-89.0895,"lo2":-89.0444,"dy":0.0017,"dx":0.0017,"nx":28,"ny":28,"refTime":"2026-02-10T09:00:00:Z","depth":0,"parameterNumber":3,"parameterNumberName":"V-component_of_WINDS"},"data":[0,0,0,0,0,0,0,0,0,0,0,0,0,0,0,0,0,0,0,0,0,0,0,0,0,0,0,0,0,0,0,0,0,0,0,0,0,0,0,0,0,0,0,0,0,0,0,0,0,0,0,0,0,0,0,0,0,0,0.9639,0.9638,0,0.9564,0.9563,0.9563,0.9522,0.9522,0.9522,0.9522,0.9439,0.9437,0.9434,0,0,0,0,0,0,0,0,0,0,0,0,0,0.9741,0.9739,0.9639,0.9638,0.9637,0.9564,0.9563,0.9562,0.9522,0.9522,0.9522,0.9522,0.9439,0.9437,0.9434,0,0,0,0,0,0,0,0,0,0,0,0,0,0.9684,0.9738,0.9639,0.9609,0.9605,0.9565,0.9563,0.9562,0.9522,0.9522,0.9522,0.9522,0.944,0.9437,0.9434,0.9416,0,0,0.9424,0.9423,0,0,0,0,0,0,0,0,0.9687,0.968,0.9614,0.9611,0.9607,0.9552,0.9569,0.9513,0.9522,0.9553,0.9522,0.9522,0.9476,0.947,0.9456,0.9413,0.9409,0.9424,0.9422,0.942,0.942,0,0,0,0,0,0,0,0.9691,0.9683,0.9609,0.9613,0.9609,0.9596,0.9588,0.9558,0.9516,0.9551,0.9547,0.9539,0.9474,0.9459,0.9454,0.9408,0.9424,0.9421,0.9419,0.9418,0.9344,0.9344,0,0,0,0,0,0,0.9701,0.9687,0.9612,0.9607,0.9648,0.9595,0.9585,0.957,0.9516,0.9508,0.954,0.9538,0.9465,0.9458,0.9451,0.9426,0.942,0.9417,0.9416,0.9344,0.9344,0.9344,0,0,0,0,0,0,0.9703,0.9695,0.9615,0.9646,0.9635,0.9593,0.9576,0.9568,0.9554,0.9508,0.95,0.9533,0.9464,0.9455,0.9425,0.9422,0.9416,0.9413,0.9344,0.9344,0.9344,0.9377,0,0,0,0,0,0,0.9707,0.9696,0.9691,0.9646,0.9634,0.9593,0.9576,0.9567,0.9549,0.9546,0.9499,0.9491,0.9464,0.943,0.9422,0.9418,0.9411,0.9344,0.9344,0.9344,0.9376,0.9378,0.938,0,0,0,0,0,0.971,0.9702,0.9691,0.9682,0.9626,0.9593,0.9585,0.9555,0.9549,0.9542,0.9513,0.9493,0.9424,0.9428,0.9418,0.9413,0.9344,0.9344,0.9344,0.9375,0.9378,0.938,0,0,0,0,0,0,0.9745,0.9695,0.9682,0.966,0.9631,0.9586,0.9577,0.9559,0.953,0.9528,0.949,0.948,0.9453,0.943,0.9435,0.9392,0.9382,0.938,0.9409,0.9411,0.9413,0.9419,0.9408,0,0,0,0,0,0.975,0.9729,0.9686,0.967,0.9657,0.9619,0.9604,0.9583,0.9551,0.9538,0.9506,0.9474,0.9445,0.9426,0.9397,0.9372,0.9361,0.9364,0.9366,0.9368,0.9366,0.935,0.935,0.9344,0.9344,0.9344,0,0,0.976,0.973,0.9719,0.9676,0.9652,0.9629,0.9609,0.9586,0.9568,0.9534,0.9504,0.948,0.9441,0.9413,0.9399,0.9393,0.9365,0.9368,0.9369,0.9367,0.935,0.935,0.9351,0.9344,0.9344,0.9344,0,0,0.9766,0.9743,0.9726,0.9702,0.9666,0.9641,0.9637,0.9595,0.9578,0.9548,0.9522,0.9498,0.9449,0.9423,0.9403,0.9398,0.9378,0.9389,0.9399,0.9384,0.9384,0.9385,0.9382,0.9382,0.9388,0.9388,0.9388,0,0.9783,0.975,0.972,0.9698,0.9679,0.9649,0.9631,0.9608,0.9563,0.955,0.9544,0.9481,0.9453,0.9418,0.9417,0.9402,0.9395,0.9395,0.9387,0.9387,0.9387,0.9384,0.9383,0.939,0.939,0.9389,0.9389,0,0.9771,0.9748,0.9739,0.9699,0.9678,0.9659,0.9624,0.9606,0.9587,0.9562,0.9531,0.9496,0.9459,0.9449,0.9429,0.9411,0.9408,0.9395,0.9384,0.9389,0.9386,0.9384,0.9392,0.9391,0.9391,0.9391,0,0,0.9797,0.9741,0.9738,0.9719,0.9676,0.9657,0.9634,0.96,0.9585,0.9555,0.9534,0.9493,0.9481,0.9458,0.9435,0.9421,0.9418,0.941,0.9408,0.9412,0.9394,0.9404,0.9403,0.9405,0.9405,0.9405,0.9397,0,0.9797,0.9759,0.9731,0.9702,0.9679,0.965,0.963,0.96,0.9576,0.9552,0.9524,0.9495,0.9482,0.9468,0.9453,0.9422,0.9414,0.9422,0.9383,0.9382,0.9394,0.9402,0.9412,0.9407,0.9396,0.9395,0.9395,0,0.9792,0.9765,0.9735,0.9694,0.9683,0.9667,0.9632,0.961,0.9574,0.9557,0.9532,0.9508,0.9481,0.9473,0.9433,0.9439,0.9421,0.9404,0.9403,0.9397,0.9389,0.9396,0.9405,0.9404,0.9393,0.9393,0.9393,0,0.9814,0.9769,0.9745,0.9729,0.9681,0.967,0.9649,0.9614,0.9595,0.9563,0.955,0.9516,0.9497,0.9469,0.9436,0.9433,0.9399,0.9388,0.9383,0.9383,0.9377,0.9378,0.9382,0.9366,0.9366,0.9366,0.9366,0,0.9816,0.9799,0.9754,0.9739,0.9718,0.9684,0.9663,0.9639,0.9608,0.9586,0.9558,0.9537,0.9495,0.9468,0.9441,0.9412,0.9403,0.9387,0.938,0.939,0.9392,0.9377,0.9377,0.9366,0.9366,0.9366,0.9366,0,0.9837,0.9806,0.9778,0.9735,0.9724,0.971,0.9671,0.9654,0.9629,0.9601,0.9593,0.9551,0.9519,0.9483,0.9437,0.9419,0.9391,0.9381,0.9404,0.94,0.9396,0.9397,0.9391,0.9388,0.9375,0.9375,0.9375,0,0.984,0.9826,0.9782,0.9767,0.9747,0.9722,0.9703,0.9669,0.9649,0.9608,0.9595,0.9561,0.9532,0.948,0.9444,0.9409,0.9398,0.9398,0.9392,0.9402,0.9397,0.9398,0.9396,0.94,0.94,0.9401,0.9401,0,0.985,0.9835,0.981,0.9779,0.9757,0.973,0.9702,0.969,0.965,0.9629,0.9597,0.9574,0.9529,0.9494,0.9454,0.943,0.9408,0.9403,0.94,0.9409,0.9422,0.9414,0.9408,0.9403,0.9403,0.9403,0.9403,0.9403,0.9861,0.9847,0.9814,0.9786,0.9762,0.9736,0.9718,0.9691,0.9664,0.9626,0.9606,0.9573,0.9536,0.9481,0.9457,0.9429,0.9422,0.9418,0.9416,0.9416,0.9418,0.9428,0.9422,0.9422,0.9421,0.9421,0.9421,0,0.9868,0.9846,0.982,0.9783,0.9761,0.9744,0.9712,0.9694,0.9666,0.9635,0.9607,0.9568,0.9535,0.9496,0.9459,0.9444,0.9433,0.9436,0.9436,0.943,0.9426,0.9433,0.9445,0.9445,0.9445,0.9445,0.9445,0.9445,0.9869,0.9845,0.9826,0.9788,0.9764,0.9734,0.9717,0.9692,0.9667,0.9626,0.9599,0.9575,0.954,0.95,0.9468,0.9457,0.9444,0.945,0.9436,0.9433,0.9431,0.9429,0.9435,0.9447,0.9447,0.9442,0.9442,0.9442]}]]